Location: Unspecified
(44.0704°N, 88.6889°W)
Time: 20:36:18
(UTC+02:00)

ISS - Pass Details

Date: 28 March 2019
Orbit: 408 x 410 km, 51.6° (Epoch: 22 April)

Event Time Altitude Azimuth Distance (km) Brightness Sun altitude
Rises 02:18:16 0° 272° (W) 2,334 1.8 -11.9°
Reaches altitude 10° 02:20:34 10° 285° (WNW) 1,473 0.6 -12.3°
Maximum altitude 02:23:26 27° 346° (NNW) 829 -1.9 -12.8°
Drops below altitude 10° 02:26:19 10° 46° (NE) 1,475 -1.3 -13.3°
Enters shadow 02:26:33 - 48° (NE) 1,559 -1.2 -13.3°
